Location: Unspecified
(0.0000°N, 0.0000°E)
Time: 08:18:11
(UTC+00:00)

AO-27 - Visible Passes

Search period start: 18 October 2021 00:00
Search period end: 28 October 2021 00:00
Orbit: 785 x 798 km, 98.9° (Epoch: 17 October)

Date Brightness Start Highest point End Pass type
(mag) Time Alt. Az. Time Alt. Az. Time Alt. Az.
18 Oct 7.7 18:58:38 10° S 19:03:49 81° WSW 19:08:59 10° NNW visible
19 Oct 7.9 18:29:49 10° SSE 18:34:44 44° ENE 18:39:37 10° N visible
19 Oct 10.8 20:12:43 10° WSW 20:13:53 11° WSW 20:15:04 10° W visible
20 Oct 8.9 18:02:00 10° ESE 18:05:39 20° ENE 18:09:18 10° NNE visible
20 Oct 9.8 19:40:38 10° SSW 19:44:51 25° WSW 19:49:03 10° NW visible
21 Oct 8.2 19:10:41 10° S 19:15:46 58° WSW 19:20:50 10° NNW visible
22 Oct 7.6 18:41:34 10° SSE 18:46:41 62° ENE 18:51:46 10° N visible
23 Oct 8.5 18:13:18 10° SE 18:17:36 27° ENE 18:21:53 10° NNE visible
23 Oct 10.2 19:53:16 10° SSW 19:56:47 18° WSW 20:00:17 10° WNW visible
24 Oct 8.9 19:22:51 10° S 19:27:43 41° WSW 19:32:33 10° NNW visible
25 Oct 7.5 18:53:27 10° SSE 18:58:38 85° ENE 19:03:48 10° N visible
26 Oct 8.1 18:24:48 10° SE 18:29:33 37° ENE 18:34:16 10° N visible
26 Oct 10.6 20:06:22 10° SW 20:08:43 13° WSW 20:11:04 10° WNW visible
27 Oct 9.5 19:35:11 10° SSW 19:39:40 30° WSW 19:44:08 10° NW visible
